Weather History for KTVC - May, 2014

Change the Weather History Date:

Monday, May 19, 2014

  Actual Average Record
Temperature  
Mean Temperature 62 °F 55 °F  
Max Temperature 74 °F 67 °F 92 °F (1975)
Min Temperature 50 °F 42 °F 24 °F (2002)
Degree Days  
Heating Degree Days 3 11  
Month to date heating degree days 263 261  
Since 1 July heating degree days 8017 7328  
Cooling Degree Days 0 1  
Month to date cooling degree days 0 2  
Year to date cooling degree days 0 5  
Growing Degree Days 12 (Base 50)    
Moisture  
Dew Point 38 °F    
Average Humidity 42    
Maximum Humidity 59    
Minimum Humidity 25    
Precipitation  
Precipitation 0.04 in 0.09 in 1.27 in (1983)
Month to date precipitation 2.29 1.58  
Year to date precipitation 8.79 10.54  
Sea Level Pressure  
Sea Level Pressure 30.14 in    
Wind  
Wind Speed 6 mph (WSW)    
Max Wind Speed 14 mph    
Max Gust Speed 19 mph    
Visibility 10 miles    
Events Rain    
T = Trace of Precipitation, MM = Missing Value Source: NWS Daily Summary

Daily Weather History Graph

Daily Weather History Graph

Search for Another Location

Airport or City:

Trip Planner

Search our weather history database for the weather conditions in past years. The results will help you decide how hot, cold, wet, or windy it might be!

Date:

Astronomy

May. 19, 2014 Rise Set
Actual Time 6:09 AM EDT 9:08 PM EDT
Civil Twilight 5:35 AM EDT 9:43 PM EDT
Nautical Twilight 4:51 AM EDT 10:27 PM EDT
Astronomical Twilight 3:59 AM EDT 11:20 PM EDT
Moon 12:52 AM EDT (5/19) 11:10 AM EDT (5/19)
Length of Visible Light 16h 07m
Length of Day
14h 58m
Waning Gibbous, 71% of the Moon is Illuminated
May 19
Waning Gibbous
May 21
Last Quarter
May 28
New
Jun 5
First Quarter
Jun 13
Full

Hourly Weather History & Observations

Time (EDT) Temp. Dew Point Humidity Pressure Visibility Wind Dir Wind Speed Gust Speed Precip Events Conditions
12:53 AM 57.9 °F 37.0 °F 46% 30.13 in 10.0 mi Variable 3.5 mph - N/A   Mostly Cloudy
1:53 AM 57.0 °F 37.0 °F 47% 30.14 in 10.0 mi Variable 4.6 mph - N/A   Overcast
2:53 AM 57.0 °F 37.0 °F 47% 30.14 in 10.0 mi SW 5.8 mph - N/A   Overcast
3:53 AM 57.0 °F 37.0 °F 47% 30.15 in 10.0 mi SSW 4.6 mph - N/A   Mostly Cloudy
4:53 AM 57.0 °F 37.0 °F 47% 30.16 in 10.0 mi SW 5.8 mph - N/A   Overcast
5:53 AM 55.9 °F 37.9 °F 51% 30.17 in 10.0 mi SW 5.8 mph - N/A   Overcast
6:53 AM 55.0 °F 37.9 °F 53% 30.19 in 10.0 mi WSW 8.1 mph - N/A   Mostly Cloudy
7:53 AM 55.9 °F 39.0 °F 53% 30.20 in 10.0 mi SW 4.6 mph - N/A   Scattered Clouds
9:53 AM 61.0 °F 41.0 °F 48% 30.19 in 10.0 mi SW 8.1 mph - N/A   Scattered Clouds
10:53 AM 64.9 °F 41.0 °F 42% 30.22 in 10.0 mi WSW 13.8 mph 17.3 mph N/A   Mostly Cloudy
11:53 AM 68.0 °F 41.0 °F 37% 30.19 in 10.0 mi West 10.4 mph - N/A   Partly Cloudy
12:53 PM 69.1 °F 39.9 °F 35% 30.17 in 10.0 mi West 8.1 mph - N/A   Partly Cloudy
2:53 PM 71.1 °F 37.0 °F 29% 30.12 in 10.0 mi WSW 9.2 mph - N/A   Overcast
3:53 PM 73.0 °F 36.0 °F 26% 30.11 in 10.0 mi Variable 4.6 mph - N/A   Overcast
4:53 PM 62.1 °F 41.0 °F 46% 30.10 in 10.0 mi NE 5.8 mph - N/A   Overcast
5:53 PM 61.0 °F 39.9 °F 46% 30.09 in 10.0 mi NNE 4.6 mph - N/A   Overcast
6:53 PM 52.0 °F 37.0 °F 57% 30.08 in 10.0 mi NNE 10.4 mph - N/A   Overcast
7:53 PM 53.1 °F 37.0 °F 55% 30.09 in 10.0 mi NNE 6.9 mph - N/A   Overcast
8:53 PM 54.0 °F 37.0 °F 53% 30.09 in 10.0 mi North 3.5 mph - N/A   Overcast
9:53 PM 51.1 °F 36.0 °F 56% 30.10 in 10.0 mi Calm Calm - N/A   Overcast
10:53 PM 51.1 °F 37.0 °F 59% 30.12 in 10.0 mi Calm Calm - N/A   Overcast
11:53 PM 50.0 °F 45.0 °F 83% 30.12 in 8.0 mi South 3.5 mph - 0.01 in Rain Light Rain